Theta_e
326 328 331 335 338 338 338 338 340 343 344 346 346 345 346 345 344 349 353 351 351 346 350 350 338 350 349 351 349 349 343 342 337 331 330 333 343 342 341 340 338 338 337
324 327 329 332 336 336 336 337 341 342 344 347 349 349 348 347 350 350 350 348 348 354 351 342 336 346 352 347 349 347 339 339 338 329 325 324 328 333 340 340 340 336 337
324 325 328 331 336 335 335 336 341 342 345 346 348 347 347 344 347 347 346 348 351 353 350 344 339 346 353 349 348 348 342 336 340 332 327 322 322 326 327 332 335 338 337
326 326 327 330 333 336 336 336 342 344 346 347 346 343 341 339 344 344 347 349 349 350 353 349 349 348 352 349 350 349 348 340 337 337 334 332 332 326 323 330 331 335 335
327 326 328 330 333 337 336 336 340 346 347 345 345 343 342 344 343 345 344 348 347 352 351 351 351 354 352 350 350 351 347 347 341 340 336 330 334 332 326 322 325 327 329
328 328 330 331 332 336 337 337 340 343 346 344 344 343 342 341 339 338 340 343 346 345 344 349 351 351 355 353 353 351 349 346 344 344 339 331 330 333 329 325 323 324 325
329 329 329 330 332 333 337 338 338 341 344 344 343 343 342 343 345 343 346 344 343 341 346 347 352 352 353 355 352 352 352 349 343 343 338 335 334 336 333 328 324 322 324
327 330 331 332 333 335 337 339 338 338 340 345 344 342 342 342 343 344 343 346 344 344 346 344 352 353 352 353 352 352 352 350 345 342 341 336 337 338 336 331 326 318 321
326 330 331 332 334 336 337 339 339 340 339 341 345 343 343 342 342 344 343 341 339 341 343 349 349 348 349 346 347 346 349 351 345 343 343 337 339 338 339 338 330 323 316
327 329 332 332 333 335 339 339 340 340 341 342 344 347 346 345 346 345 342 344 345 347 346 345 345 346 347 347 346 346 346 348 347 346 344 340 340 339 340 339 334 326 318
329 327 330 333 334 335 337 339 339 339 340 344 345 347 349 348 348 345 345 345 344 344 344 342 342 344 345 346 346 346 347 346 347 347 345 344 341 341 340 339 330 322 320
328 326 329 331 333 334 335 337 338 339 343 347 347 347 350 351 349 347 347 347 346 346 344 344 343 345 347 349 348 348 350 348 346 346 346 345 344 340 340 335 327 323 320
327 326 325 327 328 328 330 332 337 340 344 348 349 348 349 349 349 349 349 348 346 345 347 351 352 352 352 351 351 351 350 346 347 345 346 346 342 340 339 334 329 322 322
327 326 329 330 333 338 339 338 342 343 347 348 349 348 349 349 350 349 350 351 351 349 346 349 348 348 349 349 349 349 349 348 347 347 347 345 342 341 338 330 328 324 317
330 330 331 336 341 341 342 344 344 345 346 347 347 347 349 350 350 347 344 343 343 345 343 346 348 349 349 351 349 346 345 344 344 347 346 345 343 342 337 327 327 320 315
333 334 337 341 341 341 340 341 340 340 346 345 342 343 344 343 341 341 343 343 344 345 347 345 346 346 350 341 334 338 342 343 342 343 338 339 343 340 333 331 330 324 316
335 337 340 341 342 340 340 337 336 337 338 337 336 336 337 339 340 341 342 342 342 343 343 344 345 345 346 335 330 333 339 340 342 339 333 333 334 332 329 329 329 327 325
337 339 341 341 341 339 338 339 340 339 340 340 340 340 342 341 341 341 340 341 341 340 341 341 345 347 346 329 326 328 339 340 341 336 331 328 324 324 324 321 321 321 321
340 341 343 343 340 339 339 339 337 337 338 338 339 341 341 338 337 336 337 337 337 337 337 341 339 336 326 317 318 330 339 343 340 337 333 327 323 321 320 319 318 318 314
342 342 343 341 339 338 339 335 333 333 333 336 338 339 337 334 333 333 333 332 336 336 334 339 333 326 328 318 315 320 335 336 341 338 331 326 322 317 317 318 317 317 314
339 341 340 338 337 338 336 333 331 331 333 335 335 334 334 330 330 330 328 325 327 328 328 336 333 331 323 322 314 313 326 326 331 337 332 327 315 316 312 315 318 317 312
338 339 337 336 335 335 333 329 328 327 333 334 332 331 331 330 329 325 323 323 322 322 322 329 333 330 328 316 314 313 313 319 329 334 334 324 312 311 312 316 313 311 313
337 338 334 329 328 328 328 324 322 325 326 327 327 329 329 326 326 323 321 321 320 319 325 327 326 326 327 323 314 313 313 317 322 325 324 319 308 308 314 314 311 313 312
334 332 329 326 322 322 323 324 322 323 322 322 322 324 327 325 324 322 321 319 318 318 320 321 321 321 319 316 313 313 315 316 320 318 322 322 318 317 318 318 315 317 314
326 329 327 324 321 322 322 323 324 323 320 320 316 319 322 323 319 316 315 317 316 316 319 317 315 313 310 309 302 301 307 309 309 306 323 321 320 320 320 320 321 320 317
324 323 324 323 323 324 324 324 323 322 315 313 314 317 320 321 318 316 313 307 307 306 301 301 306 309 306 299 299 299 298 298 300 315 324 323 321 321 321 321 321 322 319
Wind_Speed
12 12 14 13 11 7 8 8 8 7 3 2 1 2 3 3 3 4 4 5 5 6 5 3 3 2 1 2 1 1 2 1 2 1 1 4 4 4 2 3 2 3 1
9 11 12 12 13 14 10 8 8 7 5 3 3 2 2 3 3 1 3 3 5 5 5 3 3 4 2 4 1 0 2 2 1 3 1 3 2 3 2 2 2 3 3
14 13 13 15 13 13 12 11 10 8 6 6 1 1 1 2 1 1 2 4 5 5 5 4 4 3 2 4 3 3 3 2 1 1 4 1 2 2 1 4 3 1 2
14 15 14 13 14 15 12 9 10 10 8 8 4 4 3 2 1 2 2 4 5 4 5 5 5 5 3 4 3 3 3 2 1 2 3 3 3 2 3 3 2 2 2
17 17 17 18 16 14 12 9 9 8 8 8 7 6 5 3 2 2 3 3 2 3 5 6 6 6 4 5 4 5 4 2 3 3 2 0 1 2 3 2 2 2 2
18 17 17 13 12 11 11 9 9 9 7 8 7 8 7 5 2 3 3 3 2 3 4 6 6 5 5 5 5 5 6 5 3 2 3 5 4 3 3 3 3 3 1
17 16 14 14 13 13 12 9 9 11 8 8 7 8 8 7 6 4 3 3 2 2 3 5 4 4 6 6 5 5 6 5 3 5 4 3 3 3 3 2 2 3 2
15 17 18 17 16 15 13 12 10 12 8 9 9 7 7 5 5 5 4 4 3 4 4 6 5 5 5 4 4 3 4 5 4 5 5 3 2 1 3 3 4 2 2
14 18 17 16 15 13 14 14 12 12 8 11 7 7 6 7 6 7 5 4 5 4 6 4 3 4 4 4 2 4 5 5 4 5 4 3 3 3 3 4 4 4 4
9 14 15 16 14 13 11 9 11 13 11 9 9 8 7 7 7 5 6 6 5 4 3 4 5 6 6 4 4 5 6 5 4 3 6 5 3 4 4 4 4 3 3
15 12 14 15 15 15 13 14 13 11 8 9 8 9 8 7 6 6 6 6 4 4 5 4 5 6 6 6 5 6 8 7 5 4 6 8 8 7 6 3 1 3 4
12 12 14 13 13 15 13 13 12 11 11 10 9 10 7 6 6 6 6 5 6 5 4 5 5 6 6 6 7 8 7 5 6 7 8 8 6 9 6 4 4 4 3
7 5 6 8 8 7 8 9 10 10 8 9 9 7 7 7 7 7 6 5 5 4 4 4 5 4 6 6 6 6 7 4 6 7 8 6 8 7 5 4 3 4 3
8 7 7 7 7 7 7 7 6 7 7 8 9 9 9 8 7 4 1 2 3 3 2 2 4 5 6 6 6 6 6 5 5 7 6 5 7 8 7 6 5 5 4
9 9 9 8 8 8 6 5 5 6 6 7 7 7 6 6 6 6 5 2 1 1 3 4 5 6 5 5 6 6 6 6 6 6 5 6 8 9 9 7 6 7 4
10 10 10 11 9 9 7 6 5 5 6 6 6 6 7 7 6 5 4 2 2 3 4 6 6 6 5 9 4 5 5 5 5 5 2 1 7 9 10 10 13 13 9
15 15 15 12 10 10 10 8 7 7 9 8 6 6 6 5 5 4 3 3 2 3 5 5 6 7 7 7 3 6 3 4 4 2 4 3 1 7 7 8 9 8 11
14 13 12 11 10 7 8 9 7 8 8 8 8 6 6 6 5 5 5 3 3 3 4 5 7 7 6 9 6 7 4 4 5 1 4 5 5 6 6 7 7 4 4
19 16 13 13 10 11 10 11 8 8 7 6 7 6 6 6 6 5 5 4 4 5 5 5 8 8 10 16 12 7 5 4 5 3 2 5 5 7 8 6 8 5 2
13 16 15 13 13 10 11 11 10 8 7 6 6 7 7 7 6 5 5 2 3 6 4 7 8 9 8 18 20 16 5 5 4 3 4 8 6 8 7 5 6 6 2
5 12 14 13 13 12 12 11 9 9 9 8 7 7 7 7 6 6 4 5 6 6 5 6 6 7 10 11 16 17 8 6 4 3 2 3 10 10 6 6 4 3 6
14 14 14 13 11 11 12 10 8 5 6 8 9 8 7 6 5 7 6 6 6 6 5 5 4 4 5 9 12 13 13 12 6 5 2 4 13 14 11 7 6 11 7
14 14 14 13 10 11 13 12 9 7 7 7 7 7 7 7 6 7 6 5 5 5 5 4 5 5 5 6 11 10 12 11 6 7 6 7 7 4 7 8 9 9 4
8 8 13 14 12 9 8 12 9 7 8 8 7 6 8 8 6 5 4 5 4 4 4 4 4 5 6 8 9 8 6 7 6 7 5 2 5 4 1 4 5 4 4
1 7 12 11 8 9 10 7 7 7 6 5 4 6 7 9 8 6 4 6 5 3 5 5 4 4 6 6 9 8 6 5 4 7 1 1 1 4 4 2 5 3 4
4 4 6 11 11 11 11 7 6 8 6 5 3 4 7 8 7 8 7 10 10 10 11 10 7 3 3 9 12 14 9 8 7 2 2 1 2 3 5 6 3 5 3
Wind_Direction
186 178 174 171 172 177 174 190 171 203 146 146 166 243 251 283 266 260 231 192 188 194 194 191 106 106 84 272 194 242 333 330 12 66 308 51 63 83 45 72 108 135 240
165 179 176 176 181 181 192 189 193 182 192 171 203 173 205 275 281 284 222 216 213 211 185 171 192 194 192 251 248 266 264 264 38 118 58 11 348 66 109 124 140 183 180
178 183 182 185 184 192 189 189 195 197 190 191 146 56 8 334 8 324 281 256 233 215 224 188 197 229 214 225 223 207 212 242 9 74 143 105 229 340 4 57 64 335 177
191 184 186 190 193 200 193 193 193 194 193 182 180 178 181 204 261 242 271 272 238 223 237 219 211 216 219 240 219 228 236 131 256 55 32 60 137 163 289 36 46 56 103
190 190 192 196 197 194 190 193 199 197 192 182 191 182 196 197 225 269 315 269 217 228 244 235 224 216 208 227 212 233 232 208 172 166 154 312 285 34 96 268 307 21 46
197 197 200 192 199 194 194 187 188 212 198 186 195 194 203 210 204 264 284 294 291 266 272 282 243 218 208 204 212 235 236 231 218 183 186 183 179 178 136 233 235 249 223
195 195 192 190 193 193 193 190 190 211 203 198 194 199 207 205 210 221 236 259 293 300 271 293 246 222 216 213 212 216 231 219 208 199 227 199 202 145 165 153 239 197 186
196 195 195 192 197 195 193 196 191 215 195 204 214 201 203 204 206 211 226 241 233 243 271 281 256 236 241 244 209 227 249 217 226 220 209 224 225 218 142 161 180 197 203
195 198 196 196 194 192 196 199 201 212 197 207 207 202 202 201 211 218 218 235 255 246 247 267 309 279 271 276 276 260 266 230 222 226 226 213 216 221 214 191 195 175 194
196 199 195 193 192 195 200 190 214 212 210 200 194 201 208 208 213 214 227 231 258 294 301 314 323 321 313 310 286 273 273 262 245 194 196 215 214 210 223 211 207 201 173
211 198 197 194 192 193 189 203 206 204 196 197 198 203 197 202 207 213 223 230 249 253 269 286 281 272 281 277 272 265 259 248 259 196 203 226 209 215 210 202 204 184 146
195 191 194 189 191 194 195 204 209 199 201 198 192 200 190 184 201 222 227 229 245 248 238 253 262 261 257 271 267 267 261 280 267 228 192 216 218 212 198 176 217 179 158
186 156 170 179 182 167 175 188 195 203 194 181 185 177 179 182 204 218 223 222 246 262 275 273 273 290 278 287 285 267 283 279 259 237 219 224 190 211 187 173 190 169 135
159 133 131 142 140 143 157 168 184 189 173 176 178 179 184 184 201 192 176 202 187 140 344 254 274 278 281 282 278 282 294 270 249 250 222 200 191 202 181 175 181 146 125
150 152 148 143 138 133 132 135 144 170 159 164 169 178 150 133 124 124 119 124 111 284 281 296 290 282 287 288 301 306 289 294 300 266 215 197 187 185 174 167 162 139 122
159 150 150 147 144 135 125 114 112 103 123 122 125 126 124 126 128 132 134 87 31 320 310 303 300 307 297 289 308 282 300 297 297 301 87 146 172 170 161 168 169 162 146
166 164 164 153 147 143 139 131 121 110 104 111 105 101 107 118 130 141 119 77 7 337 322 313 315 303 289 287 291 300 297 319 309 270 154 123 111 133 130 147 151 160 170
169 166 157 149 152 142 124 120 119 114 117 121 122 124 120 112 108 88 83 62 31 0 351 344 344 337 347 3 8 318 339 354 359 129 162 138 140 126 123 119 112 111 171
178 170 159 152 144 144 136 123 116 117 116 117 115 113 108 102 93 81 64 45 45 30 19 14 23 19 30 7 360 349 12 38 34 43 135 129 126 120 129 129 125 115 72
171 161 159 151 146 149 137 130 133 128 126 133 126 117 109 104 94 86 71 48 79 60 31 51 40 30 39 19 21 8 357 25 29 58 90 116 121 144 140 135 133 128 151
210 155 154 155 154 147 141 138 142 150 149 136 127 119 114 110 112 103 80 69 61 60 46 74 56 47 40 27 22 20 9 356 344 354 119 112 134 144 140 125 129 142 138
159 175 154 156 148 144 136 132 135 143 136 135 129 129 124 111 108 98 80 70 73 66 45 38 46 47 35 37 16 14 12 1 342 351 58 134 160 160 150 151 150 128 116
163 170 151 136 132 139 143 137 149 144 138 131 133 128 121 110 114 106 102 89 77 70 55 43 25 12 14 8 6 2 360 355 349 352 337 159 162 223 136 174 150 136 126
162 149 150 144 138 132 132 140 147 151 138 143 145 140 130 120 109 95 93 87 76 77 70 65 39 16 358 1 355 343 338 341 341 354 357 263 156 176 154 121 145 156 149
82 178 146 137 125 121 119 119 125 125 129 130 151 137 129 122 104 76 68 92 59 62 87 65 62 39 8 339 317 303 318 324 317 322 266 92 122 165 158 277 147 160 154
27 90 118 128 138 133 122 127 129 119 119 115 119 139 123 119 121 119 100 60 95 97 88 70 64 35 359 337 343 336 330 320 302 223 298 295 188 203 190 169 199 149 168